Weather History for Montreal Mirabel, QC

Change the Weather History Date:

Monday, November 14, 2011

  Actual Average Record
Temperature  
Mean Temperature 54 °F -  
Max Temperature 62 °F 37 °F 62 °F (2011)
Min Temperature 46 °F 25 °F 6 °F (1996)
Degree Days  
Heating Degree Days 11    
Growing Degree Days 4 (Base 50)    
Moisture  
Dew Point 47 °F    
Average Humidity 78    
Maximum Humidity 94    
Minimum Humidity 55    
Precipitation  
Precipitation 0.00 in - - ()
Sea Level Pressure  
Sea Level Pressure 29.60 in    
Wind  
Wind Speed 7 mph ()    
Max Wind Speed 21 mph    
Max Gust Speed 34 mph    
Visibility 12.4 miles    
Events Rain    
Averages and records for this station are not official NWS values.
T = Trace of Precipitation, MM = Missing Value Source: Averaged Metar Reports

Daily Weather History Graph

Daily Weather History Graph

Search for Another Location

Airport:

Trip Planner

Search our weather history database for the weather conditions in past years. The results will help you decide how hot, cold, wet, or windy it might be!

Date:

Astronomy

Nov. 14, 2011 Rise Set
Actual Time 6:53 AM EST 4:26 PM EST
Civil Twilight 6:21 AM EST 4:58 PM EST
Nautical Twilight 5:45 AM EST 5:34 PM EST
Astronomical Twilight 5:10 AM EST 6:09 PM EST
Moon 7:27 PM EST (11/14) 10:14 AM EST (11/14)
Length of Visible Light 10h 37m
Length of Day
9h 32m
Waning Gibbous, 87% of the Moon is Illuminated
Nov 14
Waning Gibbous
Nov 18
Last Quarter
Nov 25
New
Dec 2
First Quarter
Dec 10
Full

Hourly Weather History & Observations

Time (EST) Temp. Windchill Dew Point Humidity Pressure Visibility Wind Dir Wind Speed Gust Speed Precip Events Conditions
12:00 AM 51.8 °F - 37.4 °F 58% 29.68 in 25.0 mi SE 3.5 mph - N/A   Overcast
1:00 AM 50.0 °F - 39.2 °F 66% 29.66 in 25.0 mi SSE 4.6 mph - N/A   Overcast
1:43 AM 46.4 °F 45.2 °F 41.0 °F 81% - 12.0 mi East 3.5 mph - N/A Rain Light Rain Showers
2:00 AM 46.4 °F 45.2 °F 41.0 °F 81% 29.66 in 12.0 mi NNE 3.5 mph - N/A Rain Light Rain Showers
3:00 AM 46.4 °F 43.5 °F 42.8 °F 87% 29.63 in 15.0 mi NNE 5.8 mph - N/A   Overcast
4:00 AM 46.4 °F 44.3 °F 42.8 °F 87% 29.62 in 25.0 mi NNE 4.6 mph - N/A   Overcast
5:00 AM 46.4 °F - 44.6 °F 93% 29.60 in 25.0 mi NE 2.3 mph - N/A   Overcast
6:00 AM 46.4 °F - 44.6 °F 93% 29.60 in 25.0 mi NNW 2.3 mph - N/A Rain Light Rain Showers
7:00 AM 48.2 °F - 46.4 °F 93% 29.58 in 25.0 mi South 6.9 mph - N/A   Overcast
8:00 AM 50.0 °F - 46.4 °F 87% 29.57 in 25.0 mi South 5.8 mph - N/A Rain Light Rain Showers
8:25 AM 53.6 °F - 50.0 °F 88% - 25.0 mi SW 8.1 mph - N/A   Mostly Cloudy
9:00 AM 57.2 °F - 50.0 °F 77% 29.58 in 25.0 mi SW 13.8 mph 19.6 mph N/A   Partly Cloudy
10:00 AM 59.0 °F - 50.0 °F 72% 29.59 in 25.0 mi WSW 20.7 mph 31.1 mph N/A   Mostly Cloudy
11:00 AM 59.0 °F - 48.2 °F 67% 29.60 in 25.0 mi WSW 18.4 mph 31.1 mph N/A   Mostly Cloudy
12:00 PM 62.6 °F - 46.4 °F 55% 29.60 in 25.0 mi WSW 17.3 mph 28.8 mph N/A   Mostly Cloudy
1:00 PM 62.6 °F - 48.2 °F 59% 29.60 in 25.0 mi WSW 13.8 mph 26.5 mph N/A   Mostly Cloudy
2:00 PM 62.6 °F - 50.0 °F 63% 29.59 in 25.0 mi WSW 13.8 mph 20.7 mph N/A   Overcast
3:00 PM 60.8 °F - 48.2 °F 63% 29.59 in 25.0 mi SW 13.8 mph 34.5 mph N/A   Overcast
4:00 PM 60.8 °F - 48.2 °F 63% 29.59 in 25.0 mi SW 12.7 mph 19.6 mph N/A   Overcast
5:00 PM 59.0 °F - 50.0 °F 72% 29.59 in 25.0 mi SW 11.5 mph 23.0 mph N/A   Overcast
6:00 PM 59.0 °F - 50.0 °F 72% 29.58 in 25.0 mi WSW 11.5 mph 23.0 mph N/A   Mostly Cloudy
7:00 PM 57.2 °F - 51.8 °F 82% 29.58 in 25.0 mi SW 9.2 mph - N/A   Overcast
7:44 PM 57.2 °F - 51.8 °F 82% - 25.0 mi WSW 6.9 mph - N/A Rain Light Rain Showers
8:00 PM 55.4 °F - 51.8 °F 88% 29.59 in 25.0 mi WSW 8.1 mph - N/A Rain Light Rain Showers
9:00 PM 55.4 °F - 51.8 °F 88% 29.60 in 12.0 mi SW 5.8 mph - N/A Rain Light Rain Showers
10:00 PM 53.6 °F - 51.8 °F 94% 29.57 in 12.0 mi SSW 5.8 mph - N/A Rain Light Rain Showers
11:00 PM 53.6 °F - 50.0 °F 88% 29.55 in 12.0 mi South 3.5 mph - N/A Rain Light Rain Showers
11:35 PM 51.8 °F - 50.0 °F 94% - 12.0 mi SSE 3.5 mph - N/A   Overcast